TimeCDT,TemperatureF,Dew PointF,Humidity,Sea Level PressureIn,VisibilityMPH,Wind Direction,Wind SpeedMPH,Gust SpeedMPH,PrecipitationIn,Events,Conditions,WindDirDegrees,DateUTC
12:53 AM,51.1,42.1,71,29.94,10.0,NE,3.5,-,N/A,,Scattered Clouds,40,2012-10-31 05:53:00
1:53 AM,50.0,42.1,74,29.93,10.0,NE,4.6,-,N/A,,Clear,40,2012-10-31 06:53:00
2:53 AM,48.9,42.1,77,29.94,10.0,NE,4.6,-,N/A,,Clear,50,2012-10-31 07:53:00
3:53 AM,46.9,42.1,83,29.93,10.0,NE,3.5,-,N/A,,Clear,50,2012-10-31 08:53:00
4:53 AM,46.9,42.1,83,29.94,10.0,NE,4.6,-,N/A,,Clear,40,2012-10-31 09:53:00
5:53 AM,46.0,41.0,83,29.95,10.0,NE,4.6,-,N/A,,Clear,50,2012-10-31 10:53:00
6:53 AM,46.9,41.0,80,29.96,10.0,NE,3.5,-,N/A,,Clear,40,2012-10-31 11:53:00
7:53 AM,45.0,41.0,86,29.98,10.0,NNE,3.5,-,N/A,,Clear,30,2012-10-31 12:53:00
8:53 AM,50.0,43.0,77,30.00,10.0,NE,5.8,-,N/A,,Clear,50,2012-10-31 13:53:00
9:53 AM,55.0,42.1,62,30.03,10.0,ENE,8.1,-,N/A,,Clear,70,2012-10-31 14:53:00
10:53 AM,60.1,39.9,47,30.03,10.0,East,6.9,-,N/A,,Clear,100,2012-10-31 15:53:00
11:53 AM,64.0,39.0,40,30.04,10.0,Calm,Calm,-,N/A,,Clear,0,2012-10-31 16:53:00
12:53 PM,66.9,39.9,37,30.02,10.0,Calm,Calm,-,N/A,,Clear,0,2012-10-31 17:53:00
1:53 PM,71.1,37.9,30,30.00,10.0,North,3.5,-,N/A,,Clear,10,2012-10-31 18:53:00
2:53 PM,72.0,39.9,31,29.98,10.0,Variable,4.6,-,N/A,,Clear,0,2012-10-31 19:53:00
3:53 PM,72.0,39.9,31,29.97,10.0,Variable,5.8,-,N/A,,Clear,0,2012-10-31 20:53:00
4:53 PM,73.0,39.9,30,29.96,10.0,WSW,10.4,-,N/A,,Clear,250,2012-10-31 21:53:00
5:53 PM,69.1,43.0,39,29.96,10.0,West,8.1,-,N/A,,Clear,260,2012-10-31 22:53:00
6:53 PM,64.0,43.0,46,29.98,10.0,Calm,Calm,-,N/A,,Clear,0,2012-10-31 23:53:00
7:53 PM,57.9,44.1,60,29.98,10.0,Calm,Calm,-,N/A,,Clear,0,2012-11-01 00:53:00
8:53 PM,57.9,44.1,60,29.99,10.0,Calm,Calm,-,N/A,,Clear,0,2012-11-01 01:53:00
9:53 PM,55.0,44.1,67,30.00,10.0,Calm,Calm,-,N/A,,Clear,0,2012-11-01 02:53:00
10:53 PM,54.0,44.1,69,30.01,10.0,Calm,Calm,-,N/A,,Clear,0,2012-11-01 03:53:00
11:53 PM,51.1,43.0,74,30.02,10.0,Calm,Calm,-,N/A,,Clear,0,2012-11-01 04:53:00